sat.trackr.live / text

‹ back to catalog

ONEWEB-0187

NORAD 48221 · 2021-031M

PAYLOAD ACTIVE UNKNOWN

§ Identity

Operator
Country
UK
Launch date
2021-04-25
Launch site
VOSTO
Launch vehicle
Mass (kg)
RCS (m²)

Purposes: comms

External: N2YO · Heavens-Above · Gunter

§ Orbital elements

Epoch: 2026-09-19T23:09:08.372736Z

Period
109.55 min
Inclination
87.8899°
Eccentricity
0.0001854
Mean motion
13.14504085 rev/d
Perigee alt
1,204.4 km
Apogee alt
1,207.2 km
Semi-major
7,583.9 km
B*
-4.1295e-4
RAAN
270.8092°
Arg perigee
91.3297°
Mean anomaly
268.8045°
Rev number
26,071

§ Raw data

ONEWEB-01871 48221U 21031M   26262.96468024 -.00000140  00000+0 -41295-3 0  99912 48221  87.8899 270.8092 0001854  91.3297 268.8045 13.14504085260715

JSON: /api/v1/satellites/48221 · /tle

For live sub-satellite position, see the globe view (requires WebGL).

§ Visibility from observer

Set your observer location to see the next 7 days of passes ≥ 10°. The values pass through the URL so the page stays shareable.

No JS? Fill the form by hand. The geolocation button needs JavaScript.